Weather in Dolsk

Ukraine / Volyn Oblast     51°53′35″N   25°31′02″E
temp.,
°C
wind,
m/s
gust,
m/s
humid.,
%
clouds,
%
prec.,
mm/h
press.,
hPa
HPBL,
m
11 may, tue
tue1100:00+11se4128458 0.0 1021198
03:00+9se4119260 0.0 1022181
06:00+8se410915 0.0 1022184
09:00+14se6107091 0.0 1022427
12:00+18se68546 0.0 10211137
15:00+20se67413 0.0 10191378
18:00+19ese57495 0.0 1018842
21:00+13ese46740 0.0 101884
12 may, wed
wed1200:00+11ese410835 0.0 1018167
03:00+10ese498815 0.0 1017168
06:00+10e49961 0.0 1017200
09:00+13ese8107710 0.0 1017721
12:00+15ese810530 0.0 10161316
15:00+17ese89505 0.0 10151689
18:00+15ese69591 0.0 10141610
21:00+10se37751 0.0 1014128
13 may, thu
thu1300:00+7ese33825 0.0 101337
03:00+7ese349118 0.0 101149
06:00+6e349367 0.0 100964
09:00+11se467897 0.0 1008531
12:00+14se6757100 0.0 10071583
15:00+16sse7854100 0.1 10052150
18:00+11se698298 0.1 1005844
21:00+10ese51194100 0.4 1004596
14 may, fri
fri1400:00+10se41098100 0.7 1003390
03:00+12sse61296100 1.0 1002564
06:00+11sse51196100 0.0 1003408
09:00+13s578671 0.0 1004482
12:00+18s576437 0.4 10041442
15:00+17ssw4772100 1.3 1004885
18:00+16wsw367697 0.9 1004755
21:00+12wsw3689100 1.0 1005115
15 may, sat
sat1500:00+10sw3888100 0.0 1006270
03:00+9sw4893100 0.0 1006269
06:00+10sw51093100 0.1 1007544
09:00+11wsw5992100 0.3 1008559
12:00+12wsw5784100 0.1 1010805
15:00+14wsw567592 0.1 1010925
18:00+16w356891 0.0 1009780
21:00+12sw227833 0.0 101013